Date String (YYYY-MM-DD hh:mm:ss) UTC,Instrument flags,Ambient pressure (hPa),Sample flow (lpm),Bypass flow (lpm),Sample temperature (°C),Ambient temperature (°C),ASC tube jacket temperature (°C),LED temperature (°C),Box temperature (°C),Sample RH (%),Span deviation,Mass concentration (μg/m³),Mass concentration (μg/m³),Mass concentration (μg/m³)
DateTimeUTC,F1_M11,P_M11,Q1_M11,Q2_M11,T1_M11,T2_M11,T3_M11,T4_M11,T5_M11,U1_M11,ZSPAN_M11,X2_M11,X0_M11,X1_M11
2021-09-11 13:00:00,,0830.1,5.00,0.00,29.9,27.2,00.0,38.9,31.3,11.9,0002.0,0011.72,0019.61,0010.70
2021-09-11 13:01:00,,0830.1,5.01,0.00,29.8,26.5,00.0,38.9,31.1,12.0,0001.9,0011.71,0019.76,0010.68
2021-09-11 13:02:00,,0830.1,4.99,0.00,29.7,26.7,00.0,38.9,31.1,12.0,0001.8,0011.67,0019.96,0010.67
2021-09-11 13:03:00,,0830.1,5.00,0.00,29.6,27.0,00.0,38.8,31.2,12.1,0001.7,0011.67,0018.95,0010.67
2021-09-11 13:04:00,,0830.1,5.00,0.00,29.6,27.4,00.0,38.8,31.2,12.1,0001.8,0011.62,0019.40,0010.67
2021-09-11 13:05:00,,0830.1,5.00,0.00,29.6,27.7,00.0,38.8,31.3,12.0,0001.6,0011.63,0019.57,0010.69
2021-09-11 13:06:00,,0830.1,5.00,0.00,29.6,28.0,00.0,38.8,31.3,12.0,0001.6,0011.62,0019.61,0010.69
2021-09-11 13:07:00,,0830.1,5.01,0.00,29.7,28.2,00.0,38.8,31.4,12.0,0001.6,0011.61,0019.58,0010.67
2021-09-11 13:08:00,,0830.1,4.99,0.00,29.7,28.3,00.0,38.8,31.5,12.0,0001.7,0011.61,0019.96,0010.69
2021-09-11 13:09:00,,0830.1,5.00,0.00,29.7,28.5,00.0,38.8,31.5,11.9,0001.8,0011.64,0019.97,0010.72
2021-09-11 13:10:00,,0830.2,5.00,0.00,29.8,28.6,00.0,38.8,31.5,11.9,0001.8,0011.65,0019.73,0010.75
2021-09-11 13:11:00,,0830.2,5.00,0.00,29.8,28.7,00.0,38.8,31.5,11.9,0001.9,0011.67,0019.91,0010.77
2021-09-11 13:12:00,,0830.2,5.01,0.00,29.8,28.7,00.0,38.8,31.6,11.9,0001.9,0011.66,0019.33,0010.79
2021-09-11 13:13:00,,0830.3,5.00,0.00,29.8,28.8,00.0,38.8,31.6,11.9,0002.1,0011.65,0019.24,0010.78
2021-09-11 13:14:00,,0830.3,4.98,0.00,29.9,28.9,00.0,38.9,31.7,11.9,0002.4,0011.67,0019.33,0010.79
2021-09-11 13:15:00,,0830.3,5.01,0.00,29.9,28.9,00.0,38.9,31.7,11.9,0002.3,0011.73,0019.26,0010.80
2021-09-11 13:16:00,,0830.2,5.00,0.00,29.9,29.0,00.0,38.9,31.7,11.8,0002.4,0011.73,0018.74,0010.80
2021-09-11 13:17:00,,0830.3,5.00,0.00,30.0,29.0,00.0,38.9,31.8,11.8,0002.5,0011.78,0019.98,0010.83
2021-09-11 13:18:00,,0830.2,4.98,0.00,30.0,29.0,00.0,38.9,31.7,11.8,0002.5,0011.78,0020.21,0010.85
2021-09-11 13:19:00,,0830.3,5.00,0.00,29.9,27.7,00.0,38.9,31.4,11.9,0002.4,0011.78,0019.60,0010.84
2021-09-11 13:20:00,,0830.3,5.00,0.00,29.8,26.5,00.0,38.9,31.1,11.9,0002.2,0011.72,0019.78,0010.82
2021-09-11 13:21:00,,0830.2,5.00,0.00,29.7,26.6,00.0,38.9,31.2,11.9,0002.3,0011.73,0019.85,0010.80
2021-09-11 13:22:00,,0830.3,5.00,0.00,29.6,27.0,00.0,38.9,31.2,12.0,0002.4,0011.66,0019.39,0010.78
2021-09-11 13:23:00,,0830.3,4.99,0.00,29.6,27.4,00.0,38.8,31.2,12.1,0002.6,0011.59,0019.26,0010.74
2021-09-11 13:24:00,,0830.4,5.01,0.00,29.6,27.7,00.0,38.8,31.3,12.1,0002.7,0011.58,0019.26,0010.72
2021-09-11 13:25:00,,0830.4,4.99,0.00,29.6,27.9,00.0,38.8,31.3,12.1,0002.6,0011.56,0019.00,0010.69
2021-09-11 13:26:00,,0830.4,5.01,0.00,29.7,28.1,00.0,38.8,31.4,12.1,0002.5,0011.50,0019.40,0010.65
2021-09-11 13:27:00,,0830.4,4.99,0.00,29.7,28.3,00.0,38.8,31.4,12.1,0002.4,0011.44,0019.63,0010.61
2021-09-11 13:28:00,,0830.4,5.00,0.00,29.7,28.4,00.0,38.8,31.5,12.1,0002.2,0011.35,0019.68,0010.55
2021-09-11 13:29:00,,0830.4,5.00,0.00,29.7,28.6,00.0,38.8,31.5,12.1,0002.2,0011.30,0019.77,0010.50
2021-09-11 13:30:00,,0830.4,4.99,0.00,29.8,28.7,00.0,38.8,31.6,12.1,0002.3,0011.25,0019.99,0010.48
2021-09-11 13:31:00,,0830.4,5.00,0.00,29.8,28.8,00.0,38.8,31.6,12.1,0002.4,0011.29,0019.92,0010.46
2021-09-11 13:32:00,,0830.4,4.99,0.00,29.8,28.8,00.0,38.8,31.6,11.9,0002.4,0011.33,0020.07,0010.46
2021-09-11 13:33:00,,0830.4,5.00,0.00,29.9,28.9,00.0,38.9,31.7,12.0,0002.2,0011.37,0020.46,0010.47
2021-09-11 13:34:00,,0830.4,5.00,0.00,29.9,29.0,00.0,38.9,31.7,12.0,0001.9,0011.44,0020.88,0010.50
2021-09-11 13:35:00,,0830.4,4.99,0.00,29.9,29.0,00.0,38.9,31.8,12.0,0001.6,0011.45,0020.80,0010.51
2021-09-11 13:36:00,,0830.4,5.00,0.00,30.0,29.0,00.0,38.9,31.8,12.0,0001.8,0011.45,0020.73,0010.51
2021-09-11 13:37:00,,0830.4,5.01,0.00,30.0,29.1,00.0,38.9,31.8,12.0,0001.9,0011.42,0020.23,0010.49
2021-09-11 13:38:00,,0830.4,4.99,0.00,30.0,29.0,00.0,39.0,31.8,12.0,0002.0,0011.37,0020.22,0010.45
2021-09-11 13:39:00,,0830.5,5.00,0.00,30.0,27.4,00.0,38.9,31.4,12.1,0002.0,0011.35,0019.71,0010.43
2021-09-11 13:40:00,,0830.4,4.99,0.00,29.8,25.9,00.0,38.9,31.0,12.2,0001.8,0011.41,0019.23,0010.44
2021-09-11 13:41:00,,0830.4,5.00,0.00,29.6,26.1,00.0,38.9,30.9,12.3,0001.7,0011.41,0020.26,0010.41
2021-09-11 13:42:00,,0830.4,5.01,0.00,29.6,26.5,00.0,38.8,31.0,12.6,0001.7,0011.33,0020.52,0010.37
2021-09-11 13:43:00,,0830.4,4.99,0.00,29.5,27.0,00.0,38.8,31.1,13.1,0001.7,0011.22,0020.13,0010.29
2021-09-11 13:44:00,,0830.4,4.99,0.00,29.5,27.4,00.0,38.8,31.2,13.3,0001.8,0011.11,0019.70,0010.22
2021-09-11 13:45:00,,0830.5,5.01,0.00,29.6,27.7,00.0,38.7,31.2,13.4,0001.8,0011.04,0020.28,0010.14
2021-09-11 13:46:00,,0830.5,5.00,0.00,29.6,27.9,00.0,38.7,31.3,13.2,0002.0,0011.01,0019.84,0010.07
2021-09-11 13:47:00,,0830.5,5.00,0.00,29.6,28.1,00.0,38.7,31.3,13.0,0001.6,0010.97,0020.34,0010.00
2021-09-11 13:48:00,,0830.5,5.00,0.00,29.6,28.3,00.0,38.7,31.4,13.1,0001.5,0010.92,0020.07,0009.95
2021-09-11 13:49:00,,0830.5,5.00,0.00,29.7,28.4,00.0,38.7,31.4,13.1,0001.6,0010.93,0019.93,0009.92
2021-09-11 13:50:00,,0830.5,5.00,0.00,29.7,28.5,00.0,38.7,31.5,12.7,0001.5,0010.92,0019.08,0009.91
2021-09-11 13:51:00,,0830.5,5.00,0.00,29.7,28.6,00.0,38.8,31.5,12.6,0001.4,0010.84,0019.02,0009.89
2021-09-11 13:52:00,,0830.5,4.99,0.00,29.8,28.7,00.0,38.8,31.5,12.6,0001.7,0010.82,0017.84,0009.89
2021-09-11 13:53:00,,0830.5,5.01,0.00,29.8,28.8,00.0,38.8,31.6,12.6,0001.5,0010.85,0017.10,0009.90
2021-09-11 13:54:00,,0830.5,5.00,0.00,29.8,28.9,00.0,38.8,31.7,12.8,0001.1,0010.85,0017.43,0009.91
2021-09-11 13:55:00,,0830.5,4.99,0.00,29.9,28.9,00.0,38.8,31.7,13.0,0000.9,0010.92,0017.53,0009.94
2021-09-11 13:56:00,,0830.5,4.99,0.00,29.9,29.0,00.0,38.8,31.7,12.9,0000.9,0010.90,0016.75,0009.95
2021-09-11 13:57:00,,0830.6,5.01,0.00,29.9,29.0,00.0,38.9,31.8,12.9,0001.0,0010.91,0016.91,0009.99
2021-09-11 13:58:00,,0830.6,4.99,0.00,30.0,29.1,00.0,38.9,31.8,13.0,0001.2,0010.93,0016.98,0010.05
2021-09-11 13:59:00,,0830.6,5.00,0.00,30.0,29.1,00.0,38.9,31.8,13.3,0001.2,0010.96,0017.05,0010.08
